This is the latest recevied weather packets stored in our database for station/object WK7G. If no packets are shown the sender has not sent any weather packets the latest 10 day(s).
| Time | Temp. | Humidity | Pressure | Rain* | Wind** | Luminosity | Snow |
|---|---|---|---|---|---|---|---|
| 1777931647 | 15.56° C | 43% | 1001.8 hPa | 0 mm | - | 175 W/m² | - |
| 1777931343 | 15.56° C | 47% | 1001.5 hPa | 0 mm | - | 202 W/m² | - |
| 1777931040 | 15° C | 50% | 1001.6 hPa | 0 mm | - | 632 W/m² | - |
| 1777930737 | 14.44° C | 52% | 1001.9 hPa | 0 mm | - | 235 W/m² | - |
| 1777930432 | 15° C | 47% | 1001.9 hPa | 0 mm | - | 203 W/m² | - |
| 1777930130 | 15° C | 53% | 1001.9 hPa | 0 mm | - | 198 W/m² | - |
| 1777929826 | 16.11° C | 45% | 1002 hPa | 0 mm | - | 136 W/m² | - |
| 1777929524 | 16.11° C | 44% | 1002 hPa | 0 mm | - | 144 W/m² | - |
| 1777929219 | 16.67° C | 40% | 1001.9 hPa | 0 mm | - | 185 W/m² | - |
| 1777928917 | 17.22° C | 35% | 1002 hPa | 0 mm | - | 213 W/m² | - |
| 1777928614 | 16.67° C | 39% | 1002.1 hPa | 0 mm | - | 822 W/m² | - |
| 1777928311 | 14.44° C | 56% | 1002.1 hPa | 0 mm | - | 700 W/m² | - |
| 1777928009 | 13.33° C | 53% | 1002.6 hPa | 0 mm | - | 212 W/m² | - |
| 1777927707 | 14.44° C | 52% | 1002.6 hPa | 3.05 mm | - | 172 W/m² | - |
| 1777927405 | 15° C | 46% | 1002.5 hPa | 3.05 mm | - | 136 W/m² | - |
| 1777927104 | 15.56° C | 42% | 1002.8 hPa | 0 mm | - | 79 W/m² | - |
| 1777926801 | 15° C | 44% | 1002.6 hPa | 0 mm | - | 55 W/m² | - |
| 1777926496 | 15.56° C | 44% | 1002.4 hPa | 0 mm | - | 67 W/m² | - |
| 1777926194 | 16.67° C | 43% | 1002.6 hPa | 0 mm | - | 98 W/m² | - |
| 1777925890 | 17.22° C | 42% | 1002.1 hPa | 0 mm | - | 149 W/m² | - |
| 1777925588 | 18.33° C | 39% | 1002.5 hPa | 0 mm | - | 533 W/m² | - |
| 1777925285 | 16.67° C | 41% | 1002.6 hPa | 0 mm | - | 970 W/m² | - |
| 1777924981 | 16.11° C | 40% | 1002.7 hPa | 0 mm | - | 209 W/m² | - |
| 1777924678 | 16.11° C | 41% | 1002.7 hPa | 0 mm | - | 185 W/m² | - |
| 1777924373 | 16.11° C | 43% | 1002.7 hPa | 0 mm | - | 184 W/m² | - |
* Rain latest hour (hover to see other rain measurements)
** Current wind speed in m/s (hover to see current wind gust speed)